Time,TemperatureF,DewpointF,PressureIn,WindDirection,WindDirectionDegrees,WindSpeedMPH,WindSpeedGustMPH,Humidity,HourlyPrecipIn,Conditions,Clouds,dailyrainin,SoftwareType,DateUTC
2013-05-08 00:00:00,57.6,52.5,30.09,SSE,158,8.0,13.0,83,0.00,,---,0.00,VWS V14.01,2013-05-08 04:00:00,
2013-05-08 00:02:00,57.6,52.5,30.10,South,170,7.0,13.0,83,0.00,,---,0.00,VWS V14.01,2013-05-08 04:02:00,
2013-05-08 00:05:00,57.6,52.5,30.09,SE,143,8.0,12.0,83,0.00,,---,0.00,VWS V14.01,2013-05-08 04:05:00,
2013-05-08 00:06:00,57.5,52.4,30.09,SE,126,11.0,13.0,83,0.00,,---,0.00,VWS V14.01,2013-05-08 04:06:00,
2013-05-08 00:07:00,57.5,52.4,30.10,SE,136,5.0,13.0,83,0.00,,---,0.00,VWS V14.01,2013-05-08 04:07:00,
2013-05-08 00:11:00,57.4,52.6,30.09,SE,142,9.0,11.0,84,0.00,,---,0.00,VWS V14.01,2013-05-08 04:11:00,
2013-05-08 00:16:00,57.4,52.9,30.09,SSE,157,9.0,15.0,85,0.00,,---,0.00,VWS V14.01,2013-05-08 04:16:00,
2013-05-08 00:21:00,57.2,52.7,30.09,SE,131,7.0,11.0,85,0.00,,---,0.00,VWS V14.01,2013-05-08 04:21:00,
2013-05-08 00:26:00,57.2,53.1,30.09,SE,146,7.0,18.0,86,0.00,,---,0.00,VWS V14.01,2013-05-08 04:26:00,
2013-05-08 00:31:00,57.2,53.1,30.09,SSE,162,11.0,14.0,86,0.00,,---,0.00,VWS V14.01,2013-05-08 04:31:00,
2013-05-08 00:36:00,57.0,52.9,30.09,SE,139,7.0,12.0,86,0.00,,---,0.00,VWS V14.01,2013-05-08 04:36:00,
2013-05-08 00:41:00,56.9,53.1,30.09,SSE,153,10.0,15.0,87,0.00,,---,0.00,VWS V14.01,2013-05-08 04:41:00,
2013-05-08 00:46:00,56.8,53.0,30.09,ESE,121,10.0,13.0,87,0.00,,---,0.00,VWS V14.01,2013-05-08 04:46:00,
2013-05-08 00:51:00,56.7,53.2,30.08,South,175,9.0,14.0,88,0.00,,---,0.00,VWS V14.01,2013-05-08 04:51:00,
2013-05-08 00:56:00,56.6,53.1,30.08,SSE,159,7.0,13.0,88,0.00,,---,0.00,VWS V14.01,2013-05-08 04:56:00,
2013-05-08 01:01:00,56.5,53.0,30.09,SSW,200,6.0,13.0,88,0.00,,---,0.00,VWS V14.01,2013-05-08 05:01:00,
2013-05-08 01:06:00,56.4,53.2,30.08,SE,139,6.0,11.0,89,0.00,,---,0.00,VWS V14.01,2013-05-08 05:06:00,
2013-05-08 01:11:00,56.3,53.1,30.08,SSE,159,6.0,11.0,89,0.00,,---,0.00,VWS V14.01,2013-05-08 05:11:00,
2013-05-08 01:16:00,56.2,53.0,30.08,SE,131,8.0,10.0,89,0.00,,---,0.00,VWS V14.01,2013-05-08 05:16:00,
2013-05-08 01:21:00,56.2,53.0,30.08,SSE,150,7.0,12.0,89,0.00,,---,0.00,VWS V14.01,2013-05-08 05:21:00,
2013-05-08 01:26:00,56.2,53.3,30.08,SSE,158,6.0,11.0,90,0.00,,---,0.00,VWS V14.01,2013-05-08 05:26:00,
2013-05-08 01:31:00,56.3,53.4,30.08,SE,131,4.0,11.0,90,0.00,,---,0.00,VWS V14.01,2013-05-08 05:31:00,
2013-05-08 01:36:00,56.3,53.4,30.08,SE,126,8.0,12.0,90,0.00,,---,0.00,VWS V14.01,2013-05-08 05:36:00,
2013-05-08 01:41:00,56.3,53.4,30.08,SE,131,8.0,11.0,90,0.00,,---,0.00,VWS V14.01,2013-05-08 05:41:00,
2013-05-08 01:46:00,56.3,53.4,30.07,SE,129,4.0,11.0,90,0.00,,---,0.00,VWS V14.01,2013-05-08 05:46:00,
2013-05-08 01:51:00,56.3,53.4,30.07,SSE,156,5.0,9.0,90,0.00,,---,0.00,VWS V14.01,2013-05-08 05:51:00,
2013-05-08 01:56:00,56.3,53.4,30.07,SSE,149,7.0,9.0,90,0.00,,---,0.00,VWS V14.01,2013-05-08 05:56:00,
2013-05-08 02:01:00,56.3,53.4,30.07,SE,139,5.0,8.0,90,0.00,,---,0.00,VWS V14.01,2013-05-08 06:01:00,
2013-05-08 02:06:00,56.3,53.4,30.06,SSE,150,7.0,9.0,90,0.00,,---,0.00,VWS V14.01,2013-05-08 06:06:00,
2013-05-08 02:11:00,56.3,53.7,30.06,SSE,148,6.0,8.0,91,0.00,,---,0.00,VWS V14.01,2013-05-08 06:11:00,
2013-05-08 02:16:00,56.2,53.6,30.06,South,179,4.0,8.0,91,0.00,,---,0.00,VWS V14.01,2013-05-08 06:16:00,
2013-05-08 02:21:00,56.1,53.5,30.06,SSE,152,6.0,7.0,91,0.00,,---,0.00,VWS V14.01,2013-05-08 06:21:00,
2013-05-08 02:26:00,55.9,53.3,30.06,SE,132,5.0,7.0,91,0.00,,---,0.00,VWS V14.01,2013-05-08 06:26:00,
2013-05-08 02:31:00,55.8,53.5,30.06,SE,130,5.0,10.0,92,0.00,,---,0.00,VWS V14.01,2013-05-08 06:31:00,
2013-05-08 02:36:00,55.8,53.5,30.06,SE,146,5.0,8.0,92,0.00,,---,0.00,VWS V14.01,2013-05-08 06:36:00,
2013-05-08 02:41:00,55.7,53.4,30.06,SE,139,6.0,6.0,92,0.00,,---,0.00,VWS V14.01,2013-05-08 06:41:00,
2013-05-08 02:46:00,55.6,53.3,30.06,ESE,107,7.0,9.0,92,0.00,,---,0.00,VWS V14.01,2013-05-08 06:46:00,
2013-05-08 02:51:00,55.6,53.3,30.06,SSE,150,4.0,9.0,92,0.00,,---,0.00,VWS V14.01,2013-05-08 06:51:00,
2013-05-08 02:56:00,55.5,53.2,30.06,SE,139,5.0,9.0,92,0.00,,---,0.00,VWS V14.01,2013-05-08 06:56:00,
2013-05-08 03:01:00,55.4,53.1,30.06,SE,146,9.0,9.0,92,0.00,,---,0.00,VWS V14.01,2013-05-08 07:01:00,
2013-05-08 03:06:00,55.3,53.3,30.07,SE,139,7.0,10.0,93,0.00,,---,0.00,VWS V14.01,2013-05-08 07:06:00,
2013-05-08 03:11:00,55.2,53.2,30.07,SE,136,6.0,8.0,93,0.00,,---,0.00,VWS V14.01,2013-05-08 07:11:00,
2013-05-08 03:16:00,55.1,53.1,30.07,SSE,147,8.0,9.0,93,0.00,,---,0.00,VWS V14.01,2013-05-08 07:16:00,
2013-05-08 03:22:00,55.1,53.1,30.07,SSE,162,6.0,9.0,93,0.00,,---,0.00,VWS V14.01,2013-05-08 07:22:00,
2013-05-08 03:27:00,55.0,53.3,30.07,SE,134,7.0,11.0,94,0.00,,---,0.00,VWS V14.01,2013-05-08 07:27:00,
2013-05-08 03:32:00,54.9,53.2,30.07,SE,145,5.0,9.0,94,0.00,,---,0.00,VWS V14.01,2013-05-08 07:32:00,
2013-05-08 03:37:00,54.9,53.2,30.07,SE,134,5.0,8.0,94,0.00,,---,0.00,VWS V14.01,2013-05-08 07:37:00,
2013-05-08 03:42:00,54.8,53.1,30.07,SE,134,3.0,9.0,94,0.00,,---,0.00,VWS V14.01,2013-05-08 07:42:00,
2013-05-08 03:47:00,54.8,53.1,30.07,SE,132,5.0,8.0,94,0.00,,---,0.00,VWS V14.01,2013-05-08 07:47:00,
2013-05-08 03:52:00,54.8,53.1,30.07,SE,134,7.0,11.0,94,0.00,,---,0.00,VWS V14.01,2013-05-08 07:52:00,
2013-05-08 03:57:00,54.7,53.0,30.07,SSE,153,8.0,10.0,94,0.00,,---,0.00,VWS V14.01,2013-05-08 07:57:00,
2013-05-08 04:02:00,54.7,53.0,30.06,SE,129,3.0,9.0,94,0.00,,---,0.00,VWS V14.01,2013-05-08 08:02:00,
2013-05-08 04:07:00,54.7,53.3,30.06,East,95,5.0,6.0,95,0.00,,---,0.00,VWS V14.01,2013-05-08 08:07:00,
2013-05-08 04:12:00,54.8,53.4,30.06,ESE,120,6.0,7.0,95,0.00,,---,0.00,VWS V14.01,2013-05-08 08:12:00,
2013-05-08 04:17:00,54.8,53.4,30.06,ESE,105,3.0,6.0,95,0.00,,---,0.00,VWS V14.01,2013-05-08 08:17:00,
2013-05-08 04:22:00,54.9,53.5,30.06,SSE,158,5.0,9.0,95,0.00,,---,0.00,VWS V14.01,2013-05-08 08:22:00,
2013-05-08 04:27:00,55.0,53.3,30.06,ESE,107,3.0,7.0,94,0.00,,---,0.00,VWS V14.01,2013-05-08 08:27:00,
2013-05-08 04:32:00,55.1,53.4,30.06,ESE,106,4.0,8.0,94,0.00,,---,0.00,VWS V14.01,2013-05-08 08:32:00,
2013-05-08 04:37:00,55.1,53.4,30.06,SE,130,2.0,7.0,94,0.00,,---,0.00,VWS V14.01,2013-05-08 08:37:00,
2013-05-08 04:42:00,55.0,53.3,30.06,ESE,106,2.0,7.0,94,0.00,,---,0.00,VWS V14.01,2013-05-08 08:42:00,
2013-05-08 04:47:00,55.0,53.3,30.06,ESE,111,4.0,7.0,94,0.00,,---,0.00,VWS V14.01,2013-05-08 08:47:00,
2013-05-08 04:52:00,54.8,53.1,30.06,SE,130,1.0,6.0,94,0.00,,---,0.00,VWS V14.01,2013-05-08 08:52:00,
2013-05-08 04:57:00,54.7,53.0,30.06,SE,145,6.0,6.0,94,0.00,,---,0.00,VWS V14.01,2013-05-08 08:57:00,
2013-05-08 05:02:00,54.7,53.0,30.06,East,96,3.0,8.0,94,0.00,,---,0.00,VWS V14.01,2013-05-08 09:02:00,
2013-05-08 05:07:00,54.7,53.3,30.06,ESE,107,5.0,9.0,95,0.00,,---,0.00,VWS V14.01,2013-05-08 09:07:00,
2013-05-08 05:12:00,54.7,53.3,30.07,SSE,167,2.0,6.0,95,0.00,,---,0.00,VWS V14.01,2013-05-08 09:12:00,
2013-05-08 05:17:00,54.7,53.0,30.07,ESE,123,4.0,5.0,94,0.00,,---,0.00,VWS V14.01,2013-05-08 09:17:00,
2013-05-08 05:22:00,54.7,53.0,30.07,ESE,116,3.0,5.0,94,0.00,,---,0.00,VWS V14.01,2013-05-08 09:22:00,
2013-05-08 05:27:00,54.6,52.9,30.07,ESE,122,1.0,5.0,94,0.00,,---,0.00,VWS V14.01,2013-05-08 09:27:00,
2013-05-08 05:32:00,54.5,52.8,30.07,East,101,3.0,5.0,94,0.00,,---,0.00,VWS V14.01,2013-05-08 09:32:00,
2013-05-08 05:37:00,54.5,53.1,30.06,ESE,111,3.0,5.0,95,0.00,,---,0.00,VWS V14.01,2013-05-08 09:37:00,
2013-05-08 05:42:00,54.3,52.6,30.06,ESE,116,3.0,5.0,94,0.00,,---,0.00,VWS V14.01,2013-05-08 09:42:00,
2013-05-08 05:47:00,54.1,52.7,30.07,ESE,103,3.0,5.0,95,0.00,,---,0.00,VWS V14.01,2013-05-08 09:47:00,
2013-05-08 05:52:00,53.9,52.5,30.07,East,96,2.0,3.0,95,0.00,,---,0.00,VWS V14.01,2013-05-08 09:52:00,
2013-05-08 05:57:00,53.7,52.3,30.07,East,84,2.0,3.0,95,0.00,,---,0.00,VWS V14.01,2013-05-08 09:57:00,
2013-05-08 06:02:00,53.5,52.1,30.07,East,101,2.0,3.0,95,0.00,,---,0.00,VWS V14.01,2013-05-08 10:02:00,
2013-05-08 06:07:00,53.4,52.0,30.07,ESE,116,3.0,4.0,95,0.00,,---,0.00,VWS V14.01,2013-05-08 10:07:00,
2013-05-08 06:12:00,53.5,52.4,30.07,ESE,105,2.0,4.0,96,0.00,,---,0.00,VWS V14.01,2013-05-08 10:12:00,
2013-05-08 06:17:00,53.7,52.6,30.07,ESE,120,2.0,5.0,96,0.00,,---,0.00,VWS V14.01,2013-05-08 10:17:00,
2013-05-08 06:22:00,53.9,52.8,30.07,ESE,114,3.0,5.0,96,0.00,,---,0.00,VWS V14.01,2013-05-08 10:22:00,
2013-05-08 06:27:00,54.1,53.0,30.08,ENE,72,3.0,6.0,96,0.00,,---,0.00,VWS V14.01,2013-05-08 10:27:00,
2013-05-08 06:32:00,54.3,53.2,30.08,East,90,3.0,5.0,96,0.00,,---,0.00,VWS V14.01,2013-05-08 10:32:00,
2013-05-08 06:37:00,54.5,53.4,30.08,ESE,107,2.0,5.0,96,0.00,,---,0.00,VWS V14.01,2013-05-08 10:37:00,
2013-05-08 06:42:00,54.7,53.6,30.08,East,101,2.0,4.0,96,0.00,,---,0.00,VWS V14.01,2013-05-08 10:42:00,
2013-05-08 06:47:00,54.9,53.8,30.08,East,82,4.0,4.0,96,0.00,,---,0.00,VWS V14.01,2013-05-08 10:47:00,
2013-05-08 06:52:00,55.1,54.0,30.08,ESE,112,4.0,7.0,96,0.00,,---,0.00,VWS V14.01,2013-05-08 10:52:00,
2013-05-08 06:57:00,55.2,53.8,30.08,East,95,3.0,6.0,95,0.00,,---,0.00,VWS V14.01,2013-05-08 10:57:00,
2013-05-08 07:02:00,55.2,53.8,30.09,East,84,5.0,6.0,95,0.00,,---,0.00,VWS V14.01,2013-05-08 11:02:00,
2013-05-08 07:07:00,55.3,53.9,30.09,ENE,76,3.0,6.0,95,0.00,,---,0.00,VWS V14.01,2013-05-08 11:07:00,
2013-05-08 07:12:00,55.3,53.9,30.09,East,99,5.0,7.0,95,0.00,,---,0.00,VWS V14.01,2013-05-08 11:12:00,
2013-05-08 07:17:00,55.4,54.0,30.09,East,91,3.0,6.0,95,0.00,,---,0.00,VWS V14.01,2013-05-08 11:17:00,
2013-05-08 07:22:00,55.5,53.8,30.09,ENE,76,3.0,7.0,94,0.00,,---,0.00,VWS V14.01,2013-05-08 11:22:00,
2013-05-08 07:27:00,55.5,53.8,30.09,East,101,5.0,9.0,94,0.00,,---,0.00,VWS V14.01,2013-05-08 11:27:00,
2013-05-08 07:32:00,55.6,53.9,30.09,ESE,122,5.0,8.0,94,0.00,,---,0.00,VWS V14.01,2013-05-08 11:32:00,
2013-05-08 07:37:00,55.7,54.0,30.09,East,98,3.0,11.0,94,0.00,,---,0.00,VWS V14.01,2013-05-08 11:37:00,
2013-05-08 07:42:00,55.8,54.1,30.10,ENE,68,9.0,9.0,94,0.00,,---,0.00,VWS V14.01,2013-05-08 11:42:00,
2013-05-08 07:47:00,56.1,54.4,30.10,ESE,109,6.0,10.0,94,0.00,,---,0.00,VWS V14.01,2013-05-08 11:47:00,
2013-05-08 07:52:00,56.8,54.8,30.10,ESE,104,6.0,9.0,93,0.00,,---,0.00,VWS V14.01,2013-05-08 11:52:00,
2013-05-08 07:57:00,57.1,54.8,30.10,ESE,117,4.0,11.0,92,0.00,,---,0.00,VWS V14.01,2013-05-08 11:57:00,
2013-05-08 08:02:00,57.0,54.4,30.10,ESE,104,6.0,9.0,91,0.00,,---,0.00,VWS V14.01,2013-05-08 12:02:00,
2013-05-08 08:07:00,57.0,54.7,30.10,East,93,3.0,9.0,92,0.00,,---,0.00,VWS V14.01,2013-05-08 12:07:00,
2013-05-08 08:12:00,57.2,54.6,30.10,East,90,7.0,10.0,91,0.00,,---,0.00,VWS V14.01,2013-05-08 12:12:00,
2013-05-08 08:17:00,57.5,54.9,30.10,ESE,114,6.0,11.0,91,0.00,,---,0.00,VWS V14.01,2013-05-08 12:17:00,
2013-05-08 08:22:00,57.5,54.9,30.10,ESE,118,8.0,11.0,91,0.00,,---,0.00,VWS V14.01,2013-05-08 12:22:00,
2013-05-08 08:27:00,58.0,55.4,30.10,East,99,9.0,9.0,91,0.00,,---,0.00,VWS V14.01,2013-05-08 12:27:00,
2013-05-08 08:33:00,58.6,55.7,30.10,SE,126,6.0,7.0,90,0.00,,---,0.00,VWS V14.01,2013-05-08 12:33:00,
2013-05-08 08:38:00,58.9,55.4,30.10,ESE,106,5.0,12.0,88,0.00,,---,0.00,VWS V14.01,2013-05-08 12:38:00,
2013-05-08 08:43:00,58.7,55.2,30.09,East,82,7.0,13.0,88,0.00,,---,0.00,VWS V14.01,2013-05-08 12:43:00,
2013-05-08 08:48:00,58.9,55.7,30.09,East,98,9.0,13.0,89,0.00,,---,0.00,VWS V14.01,2013-05-08 12:48:00,
2013-05-08 08:53:00,59.1,55.5,30.09,SSE,150,7.0,9.0,88,0.00,,---,0.00,VWS V14.01,2013-05-08 12:53:00,
2013-05-08 08:58:00,59.6,55.7,30.09,East,100,6.0,12.0,87,0.00,,---,0.00,VWS V14.01,2013-05-08 12:58:00,
2013-05-08 09:03:00,59.9,56.3,30.09,SSE,167,4.0,10.0,88,0.00,,---,0.00,VWS V14.01,2013-05-08 13:03:00,
2013-05-08 09:08:00,59.9,55.7,30.09,SE,131,4.0,11.0,86,0.00,,---,0.00,VWS V14.01,2013-05-08 13:08:00,
2013-05-08 09:13:00,60.1,56.2,30.09,SE,131,3.0,9.0,87,0.00,,---,0.00,VWS V14.01,2013-05-08 13:13:00,
2013-05-08 09:18:00,60.3,56.1,30.09,ESE,112,4.0,10.0,86,0.00,,---,0.00,VWS V14.01,2013-05-08 13:18:00,
2013-05-08 09:23:00,60.5,56.0,30.09,SE,136,3.0,10.0,85,0.00,,---,0.00,VWS V14.01,2013-05-08 13:23:00,
2013-05-08 09:28:00,60.4,55.9,30.09,ESE,104,8.0,10.0,85,0.00,,---,0.00,VWS V14.01,2013-05-08 13:28:00,
2013-05-08 09:34:00,60.3,55.8,30.09,East,94,6.0,11.0,85,0.00,,---,0.00,VWS V14.01,2013-05-08 13:34:00,
2013-05-08 09:39:00,60.3,55.8,30.09,ESE,105,4.0,9.0,85,0.00,,---,0.00,VWS V14.01,2013-05-08 13:39:00,
2013-05-08 09:44:00,60.3,56.1,30.09,East,89,6.0,8.0,86,0.00,,---,0.00,VWS V14.01,2013-05-08 13:44:00,
2013-05-08 09:49:00,60.2,56.0,30.09,ENE,68,6.0,10.0,86,0.00,,---,0.00,VWS V14.01,2013-05-08 13:49:00,
2013-05-08 09:54:00,60.1,55.9,30.09,ESE,121,6.0,11.0,86,0.00,,---,0.00,VWS V14.01,2013-05-08 13:54:00,
2013-05-08 09:59:00,60.0,55.8,30.09,ESE,108,5.0,9.0,86,0.00,,---,0.00,VWS V14.01,2013-05-08 13:59:00,
2013-05-08 10:04:00,60.0,55.8,30.09,ESE,115,5.0,8.0,86,0.00,,---,0.00,VWS V14.01,2013-05-08 14:04:00,
2013-05-08 10:09:00,60.0,55.8,30.09,SE,134,6.0,12.0,86,0.00,,---,0.00,VWS V14.01,2013-05-08 14:09:00,
2013-05-08 10:14:00,59.8,55.3,30.09,ESE,111,6.0,12.0,85,0.00,,---,0.00,VWS V14.01,2013-05-08 14:14:00,
2013-05-08 10:19:00,59.9,55.7,30.09,SE,139,8.0,12.0,86,0.00,,---,0.00,VWS V14.01,2013-05-08 14:19:00,
2013-05-08 10:24:00,59.8,55.6,30.09,East,98,4.0,13.0,86,0.00,,---,0.00,VWS V14.01,2013-05-08 14:24:00,
2013-05-08 10:29:00,59.9,56.0,30.09,ESE,114,9.0,10.0,87,0.00,,---,0.00,VWS V14.01,2013-05-08 14:29:00,
2013-05-08 10:34:00,60.2,55.7,30.09,SE,126,8.0,13.0,85,0.00,,---,0.00,VWS V14.01,2013-05-08 14:34:00,
2013-05-08 10:39:00,60.1,55.9,30.09,SE,142,6.0,12.0,86,0.00,,---,0.00,VWS V14.01,2013-05-08 14:39:00,
2013-05-08 10:44:00,60.1,55.9,30.09,ESE,121,6.0,11.0,86,0.00,,---,0.00,VWS V14.01,2013-05-08 14:44:00,
2013-05-08 10:49:00,60.3,56.1,30.09,ESE,113,7.0,8.0,86,0.00,,---,0.00,VWS V14.01,2013-05-08 14:49:00,
2013-05-08 10:55:00,60.3,55.8,30.09,ESE,107,6.0,8.0,85,0.00,,---,0.00,VWS V14.01,2013-05-08 14:55:00,
2013-05-08 11:00:00,60.4,55.9,30.08,SE,136,5.0,11.0,85,0.00,,---,0.00,VWS V14.01,2013-05-08 15:00:00,
2013-05-08 11:05:00,60.6,56.1,30.08,SSE,166,7.0,10.0,85,0.00,,---,0.00,VWS V14.01,2013-05-08 15:05:00,
2013-05-08 11:10:00,60.9,55.7,30.08,SE,134,7.0,11.0,83,0.00,,---,0.00,VWS V14.01,2013-05-08 15:10:00,
2013-05-08 11:15:00,61.1,56.2,30.08,ESE,122,5.0,10.0,84,0.00,,---,0.00,VWS V14.01,2013-05-08 15:15:00,
2013-05-08 11:20:00,61.2,56.0,30.08,ESE,115,4.0,13.0,83,0.00,,---,0.00,VWS V14.01,2013-05-08 15:20:00,
2013-05-08 11:25:00,61.5,56.3,30.08,SE,146,4.0,11.0,83,0.00,,---,0.00,VWS V14.01,2013-05-08 15:25:00,
2013-05-08 11:30:00,61.4,55.9,30.08,East,91,7.0,12.0,82,0.00,,---,0.00,VWS V14.01,2013-05-08 15:30:00,
2013-05-08 11:35:00,61.4,55.9,30.08,East,96,9.0,12.0,82,0.00,,---,0.00,VWS V14.01,2013-05-08 15:35:00,
2013-05-08 11:40:00,61.3,55.8,30.08,East,87,4.0,11.0,82,0.00,,---,0.00,VWS V14.01,2013-05-08 15:40:00,
2013-05-08 11:46:00,61.3,55.8,30.08,SE,134,5.0,10.0,82,0.00,,---,0.00,VWS V14.01,2013-05-08 15:46:00,
2013-05-08 11:52:00,61.3,55.8,30.08,SE,132,2.0,7.0,82,0.00,,---,0.00,VWS V14.01,2013-05-08 15:52:00,
2013-05-08 11:57:00,61.3,56.1,30.07,SE,135,8.0,8.0,83,0.00,,---,0.00,VWS V14.01,2013-05-08 15:57:00,
2013-05-08 12:02:00,61.1,56.6,30.07,SE,127,6.0,7.0,85,0.00,,---,0.00,VWS V14.01,2013-05-08 16:02:00,
2013-05-08 12:08:00,60.6,56.4,30.07,ESE,115,2.0,7.0,86,0.00,,---,0.00,VWS V14.01,2013-05-08 16:08:00,
2013-05-08 12:13:00,60.5,56.6,30.07,ESE,117,5.0,6.0,87,0.00,,---,0.00,VWS V14.01,2013-05-08 16:13:00,
2013-05-08 12:18:00,60.4,56.8,30.07,ESE,111,5.0,10.0,88,0.00,,---,0.00,VWS V14.01,2013-05-08 16:18:00,
2013-05-08 12:23:00,60.1,56.8,30.06,ESE,114,3.0,8.0,89,0.00,,---,0.00,VWS V14.01,2013-05-08 16:23:00,
2013-05-08 12:28:00,60.4,57.8,30.06,SE,126,3.0,6.0,91,0.01,,---,0.01,VWS V14.01,2013-05-08 16:28:00,
2013-05-08 12:33:00,60.9,58.3,30.05,SE,142,2.0,8.0,91,0.01,,---,0.01,VWS V14.01,2013-05-08 16:33:00,
2013-05-08 12:38:00,61.5,58.5,30.05,East,94,6.0,7.0,90,0.01,,---,0.01,VWS V14.01,2013-05-08 16:38:00,
2013-05-08 12:43:00,61.6,58.3,30.05,ESE,114,6.0,9.0,89,0.01,,---,0.01,VWS V14.01,2013-05-08 16:43:00,
2013-05-08 12:49:00,62.1,58.5,30.04,SE,145,3.0,7.0,88,0.01,,---,0.01,VWS V14.01,2013-05-08 16:49:00,
2013-05-08 12:54:00,62.1,57.9,30.05,SE,124,6.0,11.0,86,0.01,,---,0.01,VWS V14.01,2013-05-08 16:54:00,
2013-05-08 12:59:00,62.2,58.3,30.04,ESE,122,2.0,11.0,87,0.01,,---,0.01,VWS V14.01,2013-05-08 16:59:00,
2013-05-08 13:04:00,62.8,58.2,30.04,SSE,165,4.0,9.0,85,0.01,,---,0.01,VWS V14.01,2013-05-08 17:04:00,
2013-05-08 13:09:00,63.0,58.1,30.04,ESE,110,6.0,10.0,84,0.01,,---,0.01,VWS V14.01,2013-05-08 17:09:00,
2013-05-08 13:14:00,63.6,58.0,30.04,ESE,106,8.0,12.0,82,0.01,,---,0.01,VWS V14.01,2013-05-08 17:14:00,
2013-05-08 13:19:00,63.5,57.6,30.04,ESE,103,4.0,12.0,81,0.01,,---,0.01,VWS V14.01,2013-05-08 17:19:00,
2013-05-08 13:24:00,63.4,58.2,30.03,East,94,4.0,8.0,83,0.01,,---,0.01,VWS V14.01,2013-05-08 17:24:00,
2013-05-08 13:30:00,63.1,57.2,30.03,East,96,17.0,17.0,81,0.00,,---,0.01,VWS V14.01,2013-05-08 17:30:00,
2013-05-08 13:36:00,63.1,56.5,30.03,ESE,107,9.0,17.0,79,0.00,,---,0.01,VWS V14.01,2013-05-08 17:36:00,
2013-05-08 13:41:00,63.3,57.4,30.03,SSE,156,4.0,14.0,81,0.00,,---,0.01,VWS V14.01,2013-05-08 17:41:00,
2013-05-08 13:47:00,63.3,57.0,30.03,SE,132,12.0,15.0,80,0.00,,---,0.01,VWS V14.01,2013-05-08 17:47:00,
2013-05-08 13:52:00,63.2,57.3,30.03,SE,129,8.0,13.0,81,0.00,,---,0.01,VWS V14.01,2013-05-08 17:52:00,
2013-05-08 13:57:00,63.0,57.4,30.03,ESE,113,3.0,12.0,82,0.00,,---,0.01,VWS V14.01,2013-05-08 17:57:00,
2013-05-08 14:03:00,63.1,57.5,30.03,SSW,195,5.0,10.0,82,0.00,,---,0.01,VWS V14.01,2013-05-08 18:03:00,
2013-05-08 14:08:00,63.2,57.6,30.03,East,89,5.0,10.0,82,0.00,,---,0.01,VWS V14.01,2013-05-08 18:08:00,
2013-05-08 14:13:00,63.2,57.6,30.03,SE,146,5.0,10.0,82,0.00,,---,0.01,VWS V14.01,2013-05-08 18:13:00,
2013-05-08 14:18:00,63.1,57.2,30.03,ESE,120,9.0,11.0,81,0.00,,---,0.01,VWS V14.01,2013-05-08 18:18:00,
2013-05-08 14:23:00,63.0,57.4,30.03,SE,126,7.0,11.0,82,0.00,,---,0.01,VWS V14.01,2013-05-08 18:23:00,
2013-05-08 14:28:00,62.8,57.2,30.03,SE,146,8.0,13.0,82,0.00,,---,0.01,VWS V14.01,2013-05-08 18:28:00,
2013-05-08 14:34:00,62.4,57.2,30.03,SE,131,9.0,10.0,83,0.00,,---,0.01,VWS V14.01,2013-05-08 18:34:00,
2013-05-08 14:40:00,62.2,57.0,30.02,ESE,116,5.0,16.0,83,0.00,,---,0.01,VWS V14.01,2013-05-08 18:40:00,
2013-05-08 14:45:00,62.0,57.5,30.02,SE,131,4.0,12.0,85,0.00,,---,0.01,VWS V14.01,2013-05-08 18:45:00,
2013-05-08 14:50:00,61.9,57.0,30.02,SE,128,7.0,11.0,84,0.00,,---,0.01,VWS V14.01,2013-05-08 18:50:00,
2013-05-08 14:55:00,61.6,56.7,30.01,ESE,111,6.0,9.0,84,0.00,,---,0.01,VWS V14.01,2013-05-08 18:55:00,
2013-05-08 15:00:00,61.4,56.9,30.01,ESE,105,3.0,9.0,85,0.00,,---,0.01,VWS V14.01,2013-05-08 19:00:00,
2013-05-08 15:05:00,61.3,56.8,30.01,East,99,6.0,6.0,85,0.00,,---,0.01,VWS V14.01,2013-05-08 19:05:00,
2013-05-08 15:11:00,61.7,57.5,30.00,ESE,121,4.0,7.0,86,0.00,,---,0.01,VWS V14.01,2013-05-08 19:11:00,
2013-05-08 15:16:00,61.9,57.0,30.00,East,101,4.0,8.0,84,0.00,,---,0.01,VWS V14.01,2013-05-08 19:16:00,
2013-05-08 15:22:00,61.9,57.0,30.00,ENE,76,5.0,7.0,84,0.00,,---,0.01,VWS V14.01,2013-05-08 19:22:00,
2013-05-08 15:27:00,61.9,56.7,30.00,East,98,4.0,9.0,83,0.00,,---,0.01,VWS V14.01,2013-05-08 19:27:00,
2013-05-08 15:33:00,61.9,56.7,29.99,East,84,5.0,7.0,83,0.00,,---,0.01,VWS V14.01,2013-05-08 19:33:00,
2013-05-08 15:38:00,61.9,56.7,29.99,East,98,6.0,8.0,83,0.00,,---,0.01,VWS V14.01,2013-05-08 19:38:00,
2013-05-08 15:43:00,62.0,56.8,29.99,ENE,62,5.0,5.0,83,0.00,,---,0.01,VWS V14.01,2013-05-08 19:43:00,
2013-05-08 15:49:00,61.9,56.7,29.99,ESE,116,6.0,8.0,83,0.00,,---,0.01,VWS V14.01,2013-05-08 19:49:00,
2013-05-08 15:54:00,61.7,56.5,29.98,East,82,3.0,8.0,83,0.00,,---,0.01,VWS V14.01,2013-05-08 19:54:00,
2013-05-08 15:59:00,61.8,56.6,29.98,East,94,3.0,5.0,83,0.00,,---,0.01,VWS V14.01,2013-05-08 19:59:00,
2013-05-08 16:05:00,61.8,56.6,29.98,East,99,2.0,10.0,83,0.00,,---,0.01,VWS V14.01,2013-05-08 20:05:00,
2013-05-08 16:10:00,61.8,56.6,29.99,East,98,4.0,7.0,83,0.00,,---,0.01,VWS V14.01,2013-05-08 20:10:00,
2013-05-08 16:15:00,61.7,56.5,29.99,East,92,2.0,6.0,83,0.01,,---,0.02,VWS V14.01,2013-05-08 20:15:00,
2013-05-08 16:20:00,61.4,56.9,29.99,East,89,3.0,7.0,85,0.01,,---,0.02,VWS V14.01,2013-05-08 20:20:00,
2013-05-08 16:25:00,61.1,56.9,29.99,SE,125,3.0,6.0,86,0.02,,---,0.03,VWS V14.01,2013-05-08 20:25:00,
2013-05-08 16:30:00,60.8,56.9,29.99,ESE,105,5.0,10.0,87,0.02,,---,0.03,VWS V14.01,2013-05-08 20:30:00,
2013-05-08 16:36:00,60.3,57.0,29.99,East,98,9.0,14.0,89,0.05,,---,0.06,VWS V14.01,2013-05-08 20:36:00,
2013-05-08 16:41:00,59.6,56.7,29.99,SE,136,8.0,19.0,90,0.06,,---,0.07,VWS V14.01,2013-05-08 20:41:00,
2013-05-08 16:46:00,59.1,56.8,29.99,ESE,104,8.0,14.0,92,0.07,,---,0.08,VWS V14.01,2013-05-08 20:46:00,
2013-05-08 16:51:00,58.8,56.8,29.99,ESE,109,6.0,15.0,93,0.07,,---,0.08,VWS V14.01,2013-05-08 20:51:00,
2013-05-08 16:57:00,58.6,56.9,29.99,SE,143,5.0,13.0,94,0.12,,---,0.13,VWS V14.01,2013-05-08 20:57:00,
2013-05-08 17:02:00,58.5,56.8,29.99,ESE,110,8.0,13.0,94,0.13,,---,0.14,VWS V14.01,2013-05-08 21:02:00,
2013-05-08 17:07:00,58.4,57.0,29.98,East,101,10.0,16.0,95,0.13,,---,0.14,VWS V14.01,2013-05-08 21:07:00,
2013-05-08 17:13:00,58.4,57.0,29.98,ESE,105,9.0,13.0,95,0.14,,---,0.15,VWS V14.01,2013-05-08 21:13:00,
2013-05-08 17:19:00,58.6,57.5,29.98,SE,131,6.0,14.0,96,0.13,,---,0.15,VWS V14.01,2013-05-08 21:19:00,
2013-05-08 17:24:00,58.7,57.6,29.98,ESE,117,8.0,14.0,96,0.13,,---,0.15,VWS V14.01,2013-05-08 21:24:00,
2013-05-08 17:29:00,58.8,57.7,29.98,ESE,110,11.0,13.0,96,0.12,,---,0.15,VWS V14.01,2013-05-08 21:29:00,
2013-05-08 17:34:00,58.7,57.6,29.98,ESE,102,5.0,13.0,96,0.12,,---,0.15,VWS V14.01,2013-05-08 21:34:00,
2013-05-08 17:39:00,58.7,57.6,29.97,SE,132,6.0,13.0,96,0.08,,---,0.15,VWS V14.01,2013-05-08 21:39:00,
2013-05-08 17:45:00,58.6,57.5,29.97,ESE,122,5.0,15.0,96,0.07,,---,0.15,VWS V14.01,2013-05-08 21:45:00,
2013-05-08 17:51:00,58.6,57.5,29.97,ESE,114,6.0,12.0,96,0.07,,---,0.15,VWS V14.01,2013-05-08 21:51:00,
2013-05-08 17:57:00,58.6,57.5,29.97,SE,139,10.0,13.0,96,0.04,,---,0.15,VWS V14.01,2013-05-08 21:57:00,
2013-05-08 18:02:00,58.6,57.5,29.97,ESE,113,7.0,18.0,96,0.01,,---,0.15,VWS V14.01,2013-05-08 22:02:00,
2013-05-08 18:07:00,58.7,57.6,29.97,ESE,118,9.0,13.0,96,0.01,,---,0.15,VWS V14.01,2013-05-08 22:07:00,
2013-05-08 18:13:00,58.6,57.5,29.96,ESE,113,8.0,16.0,96,0.00,,---,0.15,VWS V14.01,2013-05-08 22:13:00,
2013-05-08 18:18:00,58.7,57.6,29.96,SE,143,2.0,12.0,96,0.00,,---,0.15,VWS V14.01,2013-05-08 22:18:00,
2013-05-08 18:23:00,58.8,57.7,29.96,East,100,3.0,8.0,96,0.00,,---,0.15,VWS V14.01,2013-05-08 22:23:00,
2013-05-08 18:28:00,58.9,57.8,29.96,SE,142,5.0,14.0,96,0.00,,---,0.15,VWS V14.01,2013-05-08 22:28:00,
2013-05-08 18:33:00,58.8,57.7,29.96,ENE,68,4.0,10.0,96,0.00,,---,0.15,VWS V14.01,2013-05-08 22:33:00,
2013-05-08 18:38:00,58.8,57.7,29.96,ESE,119,9.0,11.0,96,0.00,,---,0.15,VWS V14.01,2013-05-08 22:38:00,
2013-05-08 18:44:00,58.7,57.6,29.96,East,94,6.0,9.0,96,0.00,,---,0.15,VWS V14.01,2013-05-08 22:44:00,
2013-05-08 18:49:00,58.7,57.6,29.96,East,99,4.0,8.0,96,0.00,,---,0.15,VWS V14.01,2013-05-08 22:49:00,
2013-05-08 18:55:00,58.6,57.5,29.96,East,101,4.0,8.0,96,0.00,,---,0.15,VWS V14.01,2013-05-08 22:55:00,
2013-05-08 19:00:00,58.6,57.8,29.96,East,99,6.0,9.0,97,0.00,,---,0.15,VWS V14.01,2013-05-08 23:00:00,
2013-05-08 19:06:00,58.6,57.8,29.96,SE,128,7.0,9.0,97,0.00,,---,0.15,VWS V14.01,2013-05-08 23:06:00,
2013-05-08 19:11:00,58.6,57.8,29.95,ENE,74,6.0,11.0,97,0.00,,---,0.15,VWS V14.01,2013-05-08 23:11:00,
2013-05-08 19:16:00,58.6,57.8,29.96,SSE,150,6.0,8.0,97,0.00,,---,0.15,VWS V14.01,2013-05-08 23:16:00,
2013-05-08 19:22:00,58.7,57.8,29.96,ESE,102,7.0,9.0,97,0.00,,---,0.15,VWS V14.01,2013-05-08 23:22:00,
2013-05-08 19:27:00,58.7,57.8,29.96,ESE,117,7.0,8.0,97,0.00,,---,0.15,VWS V14.01,2013-05-08 23:27:00,
2013-05-08 19:32:00,58.7,57.8,29.96,SE,124,5.0,10.0,97,0.00,,---,0.15,VWS V14.01,2013-05-08 23:32:00,
2013-05-08 19:37:00,58.6,57.8,29.96,ESE,106,5.0,8.0,97,0.00,,---,0.15,VWS V14.01,2013-05-08 23:37:00,
2013-05-08 19:42:00,58.6,57.8,29.96,ESE,110,7.0,9.0,97,0.00,,---,0.15,VWS V14.01,2013-05-08 23:42:00,
2013-05-08 19:47:00,58.6,57.8,29.96,ESE,111,7.0,8.0,97,0.00,,---,0.15,VWS V14.01,2013-05-08 23:47:00,
2013-05-08 19:52:00,58.6,57.8,29.96,SE,128,8.0,8.0,97,0.00,,---,0.15,VWS V14.01,2013-05-08 23:52:00,
2013-05-08 19:57:00,58.5,57.7,29.96,SE,142,8.0,12.0,97,0.00,,---,0.15,VWS V14.01,2013-05-08 23:57:00,
2013-05-08 20:02:00,58.5,57.7,29.96,ESE,113,6.0,10.0,97,0.00,,---,0.15,VWS V14.01,2013-05-09 00:02:00,
2013-05-08 20:07:00,58.5,57.7,29.96,ESE,117,3.0,10.0,97,0.00,,---,0.15,VWS V14.01,2013-05-09 00:07:00,
2013-05-08 20:13:00,58.4,57.6,29.96,East,98,4.0,12.0,97,0.00,,---,0.15,VWS V14.01,2013-05-09 00:13:00,
2013-05-08 20:18:00,58.3,57.5,29.96,SE,138,4.0,14.0,97,0.00,,---,0.15,VWS V14.01,2013-05-09 00:18:00,
2013-05-08 20:23:00,58.3,57.5,29.96,SE,138,6.0,11.0,97,0.00,,---,0.15,VWS V14.01,2013-05-09 00:23:00,
2013-05-08 20:29:00,58.3,57.5,29.96,ESE,118,5.0,6.0,97,0.00,,---,0.15,VWS V14.01,2013-05-09 00:29:00,
2013-05-08 20:34:00,58.3,57.5,29.97,ESE,116,4.0,8.0,97,0.00,,---,0.15,VWS V14.01,2013-05-09 00:34:00,
2013-05-08 20:39:00,58.3,57.5,29.97,SSE,159,7.0,12.0,97,0.00,,---,0.15,VWS V14.01,2013-05-09 00:39:00,
2013-05-08 20:44:00,58.2,57.4,29.97,SE,143,10.0,11.0,97,0.00,,---,0.15,VWS V14.01,2013-05-09 00:44:00,
2013-05-08 20:49:00,58.2,57.1,29.97,SE,139,9.0,13.0,96,0.00,,---,0.15,VWS V14.01,2013-05-09 00:49:00,
2013-05-08 20:54:00,58.0,56.9,29.97,SE,134,8.0,13.0,96,0.00,,---,0.15,VWS V14.01,2013-05-09 00:54:00,
2013-05-08 20:59:00,57.9,56.8,29.98,SE,146,7.0,12.0,96,0.00,,---,0.15,VWS V14.01,2013-05-09 00:59:00,
2013-05-08 21:04:00,57.8,56.7,29.98,SSE,167,11.0,15.0,96,0.00,,---,0.15,VWS V14.01,2013-05-09 01:04:00,
2013-05-08 21:10:00,57.6,56.5,29.98,SSE,156,5.0,16.0,96,0.00,,---,0.15,VWS V14.01,2013-05-09 01:10:00,
2013-05-08 21:15:00,57.5,56.4,29.98,South,177,10.0,13.0,96,0.00,,---,0.15,VWS V14.01,2013-05-09 01:15:00,
2013-05-08 21:20:00,57.4,56.3,29.98,SSE,150,3.0,16.0,96,0.00,,---,0.15,VWS V14.01,2013-05-09 01:20:00,
2013-05-08 21:25:00,57.2,56.1,29.98,SSE,165,9.0,16.0,96,0.00,,---,0.15,VWS V14.01,2013-05-09 01:25:00,
2013-05-08 21:30:00,57.1,56.0,29.98,SE,139,7.0,11.0,96,0.00,,---,0.15,VWS V14.01,2013-05-09 01:30:00,
2013-05-08 21:40:00,56.8,55.7,29.98,SE,141,5.0,12.0,96,0.00,,---,0.15,VWS V14.01,2013-05-09 01:40:00,
2013-05-08 21:46:00,56.6,55.5,29.98,SE,139,4.0,12.0,96,0.00,,---,0.15,VWS V14.01,2013-05-09 01:46:00,
2013-05-08 21:51:00,56.4,55.6,29.99,SE,139,5.0,9.0,97,0.00,,---,0.15,VWS V14.01,2013-05-09 01:51:00,
2013-05-08 21:57:00,56.3,55.5,29.98,SSE,158,7.0,13.0,97,0.00,,---,0.15,VWS V14.01,2013-05-09 01:57:00,
2013-05-08 22:03:00,56.2,55.4,29.99,SSE,150,8.0,10.0,97,0.00,,---,0.15,VWS V14.01,2013-05-09 02:03:00,
2013-05-08 22:09:00,56.0,55.2,29.99,SSE,163,4.0,10.0,97,0.00,,---,0.15,VWS V14.01,2013-05-09 02:09:00,
2013-05-08 22:14:00,55.9,55.1,29.99,ESE,112,3.0,7.0,97,0.00,,---,0.15,VWS V14.01,2013-05-09 02:14:00,
2013-05-08 22:19:00,55.9,55.1,29.99,SE,129,7.0,8.0,97,0.00,,---,0.15,VWS V14.01,2013-05-09 02:19:00,
2013-05-08 22:24:00,55.9,55.1,29.99,SSE,153,6.0,11.0,97,0.00,,---,0.15,VWS V14.01,2013-05-09 02:24:00,
2013-05-08 22:29:00,55.9,55.1,29.99,SSE,153,4.0,10.0,97,0.00,,---,0.15,VWS V14.01,2013-05-09 02:29:00,
2013-05-08 22:34:00,55.9,55.1,29.99,SSE,153,7.0,9.0,97,0.00,,---,0.15,VWS V14.01,2013-05-09 02:34:00,
2013-05-08 22:40:00,55.9,55.1,29.99,SSE,153,6.0,11.0,97,0.00,,---,0.15,VWS V14.01,2013-05-09 02:40:00,
2013-05-08 22:45:00,55.9,55.1,29.99,South,190,5.0,8.0,97,0.00,,---,0.15,VWS V14.01,2013-05-09 02:45:00,
2013-05-08 22:50:00,55.9,55.1,29.99,South,174,6.0,9.0,97,0.00,,---,0.15,VWS V14.01,2013-05-09 02:50:00,
2013-05-08 22:56:00,55.9,55.1,29.99,SSE,158,8.0,10.0,97,0.00,,---,0.15,VWS V14.01,2013-05-09 02:56:00,
2013-05-08 23:01:00,55.9,55.1,29.99,SE,128,8.0,14.0,97,0.00,,---,0.15,VWS V14.01,2013-05-09 03:01:00,
2013-05-08 23:06:00,56.0,55.2,29.99,SE,127,3.0,10.0,97,0.00,,---,0.15,VWS V14.01,2013-05-09 03:06:00,
2013-05-08 23:11:00,55.9,55.1,29.99,SE,136,5.0,12.0,97,0.00,,---,0.15,VWS V14.01,2013-05-09 03:11:00,
2013-05-08 23:16:00,55.9,55.1,29.99,South,174,7.0,13.0,97,0.00,,---,0.15,VWS V14.01,2013-05-09 03:16:00,
2013-05-08 23:22:00,55.9,55.1,29.99,SSE,162,5.0,9.0,97,0.00,,---,0.15,VWS V14.01,2013-05-09 03:22:00,
2013-05-08 23:27:00,55.9,55.1,29.98,SE,125,6.0,8.0,97,0.00,,---,0.15,VWS V14.01,2013-05-09 03:27:00,
2013-05-08 23:32:00,55.8,55.0,29.98,SSE,155,4.0,9.0,97,0.00,,---,0.15,VWS V14.01,2013-05-09 03:32:00,
2013-05-08 23:37:00,55.8,55.0,29.98,SE,135,6.0,15.0,97,0.00,,---,0.15,VWS V14.01,2013-05-09 03:37:00,
2013-05-08 23:42:00,55.7,54.9,29.98,SE,136,8.0,14.0,97,0.00,,---,0.15,VWS V14.01,2013-05-09 03:42:00,
2013-05-08 23:47:00,55.5,54.7,29.98,SSE,150,13.0,13.0,97,0.00,,---,0.15,VWS V14.01,2013-05-09 03:47:00,
2013-05-08 23:52:00,55.3,54.5,29.98,SSE,165,6.0,12.0,97,0.00,,---,0.15,VWS V14.01,2013-05-09 03:52:00,
2013-05-08 23:57:00,55.2,54.4,29.98,SE,139,10.0,14.0,97,0.00,,---,0.15,VWS V14.01,2013-05-09 03:57:00,